LEMUR-2-WINGO (41874 NORAD) Tracking and Keplerian Element Data

This shows tracking and keplerian element data for the satellite.

Feedback or suggestion? Click here.




ElementValue
Catalog41874
NameLEMUR-2-WINGO
Epoch Orbit6795
Epoch Day46.15490583
Epoch Year2018
RAAN12.375
Inclination51.677
Eccentricity0.000521
Argument of Perigee17.5016
Mean Anonmoly342.6142
Mean Motion15.23419111
Decay Rate1.172E-05
L11 41874U 16062F 18046.15490583 .00001172 00000-0 62496-4 0 9995
L22 41874 51.6770 12.3750 0005210 17.5016 342.6142 15.23419111 67955

Live tracking and technical data element details for LEMUR-2-WINGO (NORAD 41874). LEMUR-2-WINGO can be tracked NOW for your location showing map with azimuth and elevation plus other details from your city location.

Track the satellite on the map from your city or location and see movement details for azimuth, elevation, latitude, longitude, range, height, and movement on the map or in text.







IsCatalogInMostPopularTable: catalog: 41874, numindb: 116
Update: records affected: 1



GetName: 41874 LEMUR-2-WINGO

Hit Count: updated at: Mon, 12 Nov 2018 17:49:27 GMT